Voltar ao catálogo

COSMOS 2497

AtivoMilitarPO
NORAD 39762·PAYLOAD·🇷🇺 Russia

Lançado May 23, 2014 de Plesetsk Cosmodrome

Loading…

Próximas Passagens (próximas 24 horas)

TLE

AtualizadoSource: Space-Track

Época: Sep 14, 2026, 21:54 UTC

1 39762U 14028B   26257.91264615  .00000000  00000-0 -69315-4 0  9997
2 39762  82.4480  54.2328 0019852 237.7378 122.1778 12.42897351558661

Acompanhe COSMOS 2497 em tempo real com AllMySat

Download on the App Store